| time (UTC) | temp C | wind direction | speed KPH | gust KPH | rain 1hr cm | rain 24hr cm | rain mn cm | humidity % | barometer mb |
| 20260902070933 | 25 | 275 | 0.0 | 0.0 | 0.00 | 0.00 | 0.00 | 82 | 1016.2 |
| 20260902063645 | 25 | 275 | 0.0 | 0.0 | 0.00 | 0.00 | 0.00 | 81 | 1016.0 |
| 20260902062652 | 25 | 275 | 0.0 | 0.0 | 0.00 | 0.00 | 0.00 | 82 | 1016.1 |
| 20260902060515 | 25 | 275 | 0.0 | 0.0 | 0.00 | 0.00 | 0.00 | 81 | 1016.1 |
| 20260902055539 | 25 | 275 | 0.0 | 0.0 | 0.00 | 0.00 | 0.00 | 81 | 1016.0 |
| 20260902054507 | 26 | 275 | 0.0 | 0.0 | 0.00 | 0.00 | 0.00 | 80 | 1015.9 |
| 20260902051224 | 26 | 275 | 0.0 | 0.0 | 0.00 | 0.00 | 0.00 | 79 | 1016.0 |
| 20260902045109 | 26 | 275 | 0.0 | 0.0 | 0.00 | 0.00 | 0.00 | 77 | 1015.9 |
| 20260902044107 | 26 | 275 | 0.0 | 0.0 | 0.00 | 0.00 | 0.00 | 76 | 1015.8 |
| 20260902043049 | 27 | 275 | 0.0 | 0.0 | 0.00 | 0.00 | 0.00 | 77 | 1015.6 |
| 20260902042110 | 27 | 275 | 0.0 | 0.0 | 0.00 | 0.00 | 0.00 | 76 | 1015.4 |
| 20260902041103 | 27 | 275 | 0.0 | 0.0 | 0.00 | 0.00 | 0.00 | 75 | 1015.3 |
| 20260902040111 | 27 | 275 | 0.0 | 0.0 | 0.00 | 0.00 | 0.00 | 75 | 1015.3 |
| 20260902035100 | 27 | 275 | 0.0 | 0.0 | 0.00 | 0.00 | 0.00 | 75 | 1015.2 |
| 20260902034027 | 27 | 275 | 0.0 | 0.0 | 0.00 | 0.00 | 0.00 | 74 | 1015.0 |
| 20260902033048 | 28 | 275 | 0.0 | 0.0 | 0.00 | 0.00 | 0.00 | 73 | 1014.8 |
| 20260902032113 | 28 | 275 | 0.0 | 0.0 | 0.00 | 0.00 | 0.00 | 71 | 1014.8 |
| 20260902031039 | 28 | 275 | 0.0 | 0.0 | 0.00 | 0.00 | 0.00 | 72 | 1014.7 |
| 20260902030046 | 28 | 275 | 0.0 | 1.6 | 0.00 | 0.00 | 0.00 | 70 | 1014.6 |
| 20260902025030 | 28 | 275 | 0.0 | 0.0 | 0.00 | 0.00 | 0.00 | 70 | 1014.5 |
| 20260902021726 | 28 | 275 | 0.0 | 0.0 | 0.00 | 0.00 | 0.00 | 72 | 1015.0 |
| 20260902015554 | 29 | 275 | 0.0 | 0.0 | 0.00 | 0.00 | 0.00 | 72 | 1014.6 |
| 20260902014611 | 29 | 275 | 0.0 | 0.0 | 0.00 | 0.00 | 0.00 | 72 | 1014.5 |
| 20260902012508 | 30 | 275 | 0.0 | 0.0 | 0.00 | 0.00 | 0.00 | 72 | 1014.4 |
| 20260902011511 | 30 | 275 | 0.0 | 0.0 | 0.00 | 0.00 | 0.00 | 72 | 1014.3 |
| 20260902010535 | 30 | 275 | 0.0 | 0.0 | 0.00 | 0.00 | 0.00 | 70 | 1014.2 |
| 20260902005549 | 30 | 275 | 0.0 | 4.8 | 0.00 | 0.00 | 0.00 | 68 | 1014.0 |
| 20260902004534 | 31 | 275 | 0.0 | 0.0 | 0.00 | 0.00 | 0.00 | 69 | 1014.0 |
| 20260902003506 | 31 | 275 | 0.0 | 3.2 | 0.00 | 0.00 | 0.00 | 67 | 1013.6 |
| 20260902002514 | 31 | 277 | 0.0 | 0.0 | 0.00 | 0.00 | 0.00 | 66 | 1013.4 |
| 20260902001453 | 31 | 277 | 0.0 | 0.0 | 0.00 | 0.00 | 0.00 | 65 | 1013.2 |
| 20260902000515 | 32 | 277 | 0.0 | 0.0 | 0.00 | 0.00 | 0.00 | 63 | 1013.1 |
| 20260901235520 | 32 | 277 | 0.0 | 0.0 | 0.00 | 0.00 | 0.00 | 62 | 1013.1 |
| 20260901234522 | 32 | 277 | 0.0 | 0.0 | 0.00 | 0.00 | 0.00 | 61 | 1013.0 |
| 20260901233514 | 33 | 277 | 0.0 | 0.0 | 0.00 | 0.00 | 0.00 | 60 | 1013.0 |
| 20260901231424 | 33 | 219 | 0.0 | 6.4 | 0.00 | 0.00 | 0.00 | 58 | 1013.3 |
| 20260901230351 | 33 | 240 | 0.0 | 6.4 | 0.00 | 0.00 | 0.00 | 58 | 1013.3 |
| 20260901225407 | 33 | 275 | 1.6 | 9.7 | 0.00 | 0.00 | 0.00 | 57 | 1013.4 |
| 20260901224337 | 33 | 271 | 1.6 | 12.9 | 0.00 | 0.00 | 0.00 | 56 | 1013.3 |
| 20260901223341 | 34 | 250 | 1.6 | 12.9 | 0.00 | 0.00 | 0.00 | 54 | 1013.3 |
| 20260901222332 | 34 | 217 | 1.6 | 9.7 | 0.00 | 0.00 | 0.00 | 54 | 1013.4 |
| 20260901221355 | 35 | 259 | 1.6 | 1.6 | 0.00 | 0.00 | 0.00 | 52 | 1013.4 |
| 20260901220351 | 35 | 279 | 3.2 | 14.5 | 0.00 | 0.00 | 0.00 | 50 | 1013.4 |
| 20260901215335 | 35 | 287 | 3.2 | 14.5 | 0.00 | 0.00 | 0.00 | 50 | 1013.4 |
| 20260901214306 | 35 | 333 | 1.6 | 14.5 | 0.00 | 0.00 | 0.00 | 52 | 1013.5 |
| 20260901213321 | 35 | 274 | 1.6 | 14.5 | 0.00 | 0.00 | 0.00 | 49 | 1013.5 |
| 20260901211151 | 35 | 256 | 1.6 | 14.5 | 0.00 | 0.00 | 0.00 | 49 | 1013.4 |
| 20260901210144 | 36 | 323 | 3.2 | 11.3 | 0.00 | 0.00 | 0.00 | 49 | 1013.6 |
| 20260901205204 | 36 | 275 | 3.2 | 12.9 | 0.00 | 0.00 | 0.00 | 49 | 1013.6 |
| 20260901204154 | 36 | 232 | 0.0 | 12.9 | 0.00 | 0.00 | 0.00 | 49 | 1013.7 |
| 20260901203147 | 35 | 208 | 3.2 | 11.3 | 0.00 | 0.00 | 0.00 | 51 | 1013.8 |
| 20260901202126 | 35 | 266 | 1.6 | 11.3 | 0.00 | 0.00 | 0.00 | 51 | 1013.9 |
| 20260901200001 | 36 | 332 | 3.2 | 11.3 | 0.00 | 0.00 | 0.00 | 50 | 1014.2 |
| 20260901195021 | 36 | 260 | 3.2 | 12.9 | 0.00 | 0.00 | 0.00 | 49 | 1014.3 |
| 20260901194026 | 36 | 267 | 4.8 | 12.9 | 0.00 | 0.00 | 0.00 | 50 | 1014.2 |
| 20260901192959 | 36 | 207 | 1.6 | 9.7 | 0.00 | 0.00 | 0.00 | 50 | 1014.4 |
| 20260901191959 | 36 | 275 | 0.0 | 1.6 | 0.00 | 0.00 | 0.00 | 52 | 1014.5 |
| 20260901191016 | 36 | 301 | 0.0 | 0.0 | 0.00 | 0.00 | 0.00 | 50 | 1014.7 |
| 20260901184844 | 37 | 346 | 1.6 | 14.5 | 0.00 | 0.00 | 0.00 | 49 | 1014.8 |
| 20260901183837 | 37 | 315 | 3.2 | 14.5 | 0.00 | 0.00 | 0.00 | 49 | 1014.8 |
| 20260901182809 | 36 | 311 | 0.0 | 6.4 | 0.00 | 0.00 | 0.00 | 50 | 1014.8 |
| 20260901181825 | 36 | 290 | 0.0 | 0.0 | 0.00 | 0.00 | 0.00 | 48 | 1014.8 |
| 20260901180825 | 36 | 281 | 0.0 | 6.4 | 0.00 | 0.00 | 0.00 | 50 | 1014.7 |
| 20260901175809 | 35 | 266 | 0.0 | 6.4 | 0.00 | 0.00 | 0.00 | 52 | 1014.8 |
| 20260901174752 | 36 | 309 | 0.0 | 9.7 | 0.00 | 0.00 | 0.00 | 52 | 1014.9 |
| 20260901173746 | 36 | 276 | 0.0 | 1.6 | 0.00 | 0.00 | 0.00 | 50 | 1014.8 |
| 20260901172810 | 36 | 274 | 0.0 | 1.6 | 0.00 | 0.00 | 0.00 | 49 | 1014.8 |
| 20260901171737 | 37 | 331 | 0.0 | 11.3 | 0.00 | 0.00 | 0.00 | 50 | 1014.8 |
| 20260901170735 | 36 | 300 | 0.0 | 1.6 | 0.00 | 0.00 | 0.00 | 51 | 1015.0 |
| 20260901165754 | 36 | 296 | 0.0 | 9.7 | 0.00 | 0.00 | 0.00 | 51 | 1015.2 |
| 20260901162529 | 35 | 347 | 1.6 | 8.0 | 0.00 | 0.00 | 0.00 | 53 | 1015.5 |
| 20260901161550 | 35 | 355 | 0.0 | 6.4 | 0.00 | 0.00 | 0.00 | 53 | 1015.5 |
| 20260901160529 | 35 | 278 | 0.0 | 8.0 | 0.00 | 0.00 | 0.00 | 54 | 1015.7 |
| 20260901155507 | 35 | 220 | 0.0 | 11.3 | 0.00 | 0.00 | 0.00 | 55 | 1015.8 |
| 20260901154512 | 34 | 355 | 1.6 | 11.3 | 0.00 | 0.00 | 0.00 | 54 | 1015.9 |
| 20260901153512 | 34 | 292 | 1.6 | 9.7 | 0.00 | 0.00 | 0.00 | 56 | 1016.1 |
| 20260901152503 | 34 | 300 | 1.6 | 9.7 | 0.00 | 0.00 | 0.00 | 55 | 1016.2 |
| 20260901151508 | 34 | 261 | 1.6 | 8.0 | 0.00 | 0.00 | 0.00 | 57 | 1016.4 |
| 20260901150509 | 33 | 316 | 0.0 | 11.3 | 0.00 | 0.00 | 0.00 | 57 | 1016.3 |
| 20260901145513 | 33 | 268 | 1.6 | 11.3 | 0.00 | 0.00 | 0.00 | 55 | 1016.3 |
| 20260901144511 | 33 | 219 | 1.6 | 9.7 | 0.00 | 0.00 | 0.00 | 56 | 1016.4 |
| 20260901143523 | 33 | 249 | 0.0 | 9.7 | 0.00 | 0.00 | 0.00 | 57 | 1016.4 |
| 20260901142500 | 32 | 332 | 0.0 | 0.0 | 0.00 | 0.00 | 0.00 | 59 | 1016.4 |
| 20260901141442 | 32 | 286 | 0.0 | 6.4 | 0.00 | 0.00 | 0.00 | 58 | 1016.4 |
| 20260901140503 | 33 | 286 | 0.0 | 0.0 | 0.00 | 0.00 | 0.00 | 57 | 1016.4 |
| 20260901135503 | 33 | 286 | 0.0 | 1.6 | 0.00 | 0.00 | 0.00 | 57 | 1016.4 |
| 20260901134435 | 32 | 286 | 0.0 | 0.0 | 0.00 | 0.00 | 0.00 | 61 | 1016.4 |
| 20260901133420 | 31 | 286 | 0.0 | 0.0 | 0.00 | 0.00 | 0.00 | 62 | 1016.5 |
| 20260901132429 | 31 | 292 | 0.0 | 0.0 | 0.00 | 0.00 | 0.00 | 65 | 1016.5 |
| 20260901130314 | 30 | 277 | 0.0 | 0.0 | 0.00 | 0.00 | 0.00 | 71 | 1016.7 |
| 20260901125247 | 29 | 277 | 0.0 | 0.0 | 0.00 | 0.00 | 0.00 | 72 | 1016.7 |
| 20260901123053 | 28 | 277 | 0.0 | 4.8 | 0.00 | 0.00 | 0.00 | 72 | 1016.9 |
| 20260901122044 | 28 | 284 | 0.0 | 0.0 | 0.00 | 0.00 | 0.00 | 74 | 1016.9 |
| 20260901121035 | 27 | 284 | 0.0 | 0.0 | 0.00 | 0.00 | 0.00 | 78 | 1016.8 |
| 20260901120013 | 26 | 284 | 0.0 | 0.0 | 0.00 | 0.00 | 0.00 | 82 | 1016.7 |
| 20260901113916 | 26 | 284 | 0.0 | 0.0 | 0.00 | 0.00 | 0.00 | 83 | 1016.5 |
| 20260901112855 | 26 | 284 | 0.0 | 0.0 | 0.00 | 0.00 | 0.00 | 84 | 1016.3 |
| 20260901111908 | 25 | 284 | 0.0 | 0.0 | 0.00 | 0.00 | 0.00 | 85 | 1016.3 |
| 20260901110908 | 25 | 285 | 0.0 | 0.0 | 0.00 | 0.00 | 0.00 | 85 | 1016.4 |
| 20260901105930 | 25 | 285 | 0.0 | 0.0 | 0.00 | 0.00 | 0.00 | 84 | 1016.4 |
| 20260901104929 | 25 | 285 | 0.0 | 6.4 | 0.00 | 0.00 | 0.00 | 84 | 1016.3 |
| 20260901103929 | 25 | 284 | 0.0 | 0.0 | 0.00 | 0.00 | 0.00 | 83 | 1016.2 |
| 20260901102949 | 25 | 284 | 0.0 | 0.0 | 0.00 | 0.00 | 0.00 | 83 | 1016.0 |
| 20260901102001 | 25 | 250 | 0.0 | 0.0 | 0.00 | 0.00 | 0.00 | 84 | 1016.1 |
| 20260901100959 | 25 | 286 | 0.0 | 8.0 | 0.00 | 0.00 | 0.00 | 85 | 1016.1 |
| 20260901100022 | 25 | 280 | 0.0 | 6.4 | 0.00 | 0.00 | 0.00 | 85 | 1016.0 |
| 20260901095008 | 25 | 281 | 0.0 | 3.2 | 0.00 | 0.00 | 0.00 | 86 | 1016.0 |
| 20260901094021 | 25 | 281 | 0.0 | 0.0 | 0.00 | 0.00 | 0.00 | 86 | 1015.9 |
| 20260901093047 | 25 | 281 | 0.0 | 0.0 | 0.00 | 0.00 | 0.00 | 86 | 1016.0 |
| 20260901092046 | 25 | 281 | 0.0 | 0.0 | 0.00 | 0.00 | 0.00 | 86 | 1016.2 |
| 20260901091016 | 25 | 282 | 0.0 | 6.4 | 0.00 | 0.00 | 0.00 | 87 | 1016.3 |
| 20260901090027 | 25 | 282 | 0.0 | 1.6 | 0.00 | 0.00 | 0.00 | 87 | 1016.2 |
| 20260901082812 | 25 | 302 | 0.0 | 0.0 | 0.00 | 0.00 | 0.00 | 87 | 1016.2 |
| 20260901081752 | 25 | 302 | 0.0 | 0.0 | 0.00 | 0.00 | 0.00 | 87 | 1016.2 |
| 20260901080816 | 25 | 191 | 0.0 | 4.8 | 0.00 | 0.03 | 0.00 | 87 | 1016.1 |
| 20260901075746 | 25 | 209 | 0.0 | 3.2 | 0.00 | 0.03 | 0.00 | 87 | 1016.2 |
| 20260901074725 | 25 | 252 | 0.0 | 6.4 | 0.00 | 0.03 | 0.00 | 88 | 1016.2 |
| 20260901073747 | 25 | 237 | 0.0 | 1.6 | 0.00 | 0.03 | 0.00 | 88 | 1016.3 |
| 20260901072745 | 25 | 237 | 0.0 | 1.6 | 0.00 | 0.03 | 0.00 | 88 | 1016.5 |
| 20260901071755 | 25 | 237 | 0.0 | 0.0 | 0.00 | 0.03 | 0.00 | 89 | 1016.5 |